658  
ASUS46 KLOX 111413  
RWRCA  
 
SOUTHERN CALIFORNIA WEATHER ROUNDUP  
NATIONAL WEATHER SERVICE OXNARD CALIFORNIA  
700 AM PDT THU AUG 11 2022  
 
NOTE: "FAIR" INDICATES FEW OR NO CLOUDS BELOW 12,000 FEET WITH NO  
SIGNIFICANT WEATHER AND/OR S TO VISIBILITY
.  
 
- STATIONS PRECEEDED BY AN ASTERISK (*) ARE NOT NWS OR FAA  
STATIONS AND ARE NOT SUBJECT TO NWS AND FAA QUALITY CONTROL.
 
 
CAZ041-042-087-111500-  
LA AND ORANGE COUNTY COASTAL AREAS  
 
 
CITY SKY/WX TMP DP RH WIND PRES REMARKS
 
L.A. DOWNTOWN CLEAR 69 61 75 CALM 29.99R  
L.A. AIRPORT PTCLDY 71 61 70 N5 29.99S  
LONG BEACH CLEAR 69 64 84 CALM 29.99R  
 
CITY SKY/WX TMP DP RH WIND PRES REMARKS
 
AVALON N/A 63 N/A N/A MISG N/A  
FULLERTON CLEAR 72 63 73 CALM 29.98R  
HAWTHORNE CLEAR 71 62 73 CALM 29.99R  
*LOS ALAMITOS PTCLDY 67 64 90 CALM 29.97R  
SANTA ANA PTCLDY 72 61 68 CALM 29.99R  
STA MONICA APT CLEAR 68 56 65 CALM 29.99S  
*STA MON PIER N/A 71 48 43 CALM 29.94S  
TORRANCE PTCLDY 66 63 88 CALM 29.99  
*UCLA N/A 72 55 56 CALM 29.97R  
 

 
 
CAZ547-548-048-111500-  
LA COUNTY VALLEYS AND INLAND EMPIRE  
 
 
CITY SKY/WX TMP DP RH WIND PRES REMARKS
 
BURBANK CLEAR 74 47 38 NW6 30.01R  
VAN NUYS CLEAR 72 53 51 W3 30.01R  
 
CITY SKY/WX TMP DP RH WIND PRES REMARKS
 
CORONA AIRPORT SUNNY 68 59 73 CALM 30.01R  
*CHATSWORTH N/A 71 47 41 NW2 29.94S  
CHINO PTCLDY 70 57 63 CALM 30.01R  
*CLAREMONT N/A 71 48 43 CALM N/A  
MARCH AFB CLEAR 72 43 35 CALM 30.04R  
*NORTHRIDGE N/A 68 50 52 CALM N/A  
ONTARIO PTCLDY 73 55 53 CALM 30.01R  
*PASADENA N/A 73 55 53 CALM N/A  
RIVERSIDE CLEAR 71 52 50 SE3 30.01R  
SAN BERNARDINO NOT AVBL  
*SAUGUS N/A 70 41 35 NE2 N/A  
*WHITEMAN AP NOT AVBL  
*WHITTIER HILL N/A 71 56 58 CALM N/A  
*WOODLAND HILL N/A 64 46 52 MISG N/A  
 

 
 
CAZ054-055-111500-  
LA AND SAN BERNARDINO COUNTY MOUNTAINS  
 
 
CITY SKY/WX TMP DP RH WIND PRES REMARKS
 
*ACTON N/A 62 40 44 N5 N/A  
*BIG BEAR AIRP SUNNY 48 43 81 CALM 30.39R  
*BIG PINES N/A 61 42 50 CALM N/A  
*CHILAO N/A 71 44 37 CALM N/A  
SANDBERG NOT AVBL  
*WARM SPRINGS N/A 72 42 34 CALM N/A  
 

 
 
CAZ028-029-059-060-099-111500-  
ANTELOPE VALLEY AND SURROUNDING AREAS  
 
 
CITY SKY/WX TMP DP RH WIND PRES REMARKS
 
LANCASTER CLEAR 73 43 33 CALM 30.08R  
PALMDALE CLEAR 75 39 27 S5 30.09R  
*POPPY PARK N/A 74 43 32 SW2 N/A  
 
CITY SKY/WX TMP DP RH WIND PRES REMARKS
 
29 PALMS MOSUNNY 83 53 35 W7 30.10R  
BARSTOW/DAGGET SUNNY 79 48 33 W8 30.05R  
BISHOP CLEAR 65 51 60 NW5 30.16R  
CHINA LAKE PTCLDY 79 50 36 S5 30.04R  
EDWARDS AFB PTCLDY 71 40 32 S5 30.06R  
MOJAVE CLEAR 72 45 37 CALM 30.10R HAZE  
NEEDLES PTSUNNY 87 67 51 CALM 29.98R HX 90  
VICTORVILLE CLEAR 73 46 38 SE6 30.14R  
 

 
 
CAZ039-040-111500-  
VENTURA AND SANTA BARBARA COUNTY COAST  
 
 
CITY SKY/WX TMP DP RH WIND PRES REMARKS
 
CAMARILLO PTCLDY 61 58 90 CALM 30.00R  
NWS OXNARD N/A 60 50 68 CALM 29.97R  
OXNARD AIRPORT PTCLDY 60 60 100 NE3 30.00R  
SBA APT/GOLETA CLEAR 59 56 89 CALM 29.99R  
*VENTURA N/A 59 57 94 E2 N/A  
 

 
 
CAZ044-045-111500-  
VENTURA COUNTY VALLEYS  
 
 
CITY SKY/WX TMP DP RH WIND PRES REMARKS
 
*SIMI VALLEY N/A 66 50 57 CALM 29.93S  
*N 1000 OAKS N/A 69 49 48 CALM 30.00R  
*TO CIVIC ARTS N/A 66 52 59 MISG N/A  
*WESTLAKE VILL N/A 59 48 67 CALM 29.96R  
*OJAI N/A 58 49 73 CALM 29.99F  
 

 
 
CAZ053-111500-  
VENTURA COUNTY MOUNTAINS  
 
 
CITY SKY/WX TMP DP RH WIND PRES REMARKS
 
*LOCKWOOD VLY N/A 54 36 50 MISG N/A  
*ROSE VALLEY N/A 52 39 62 MISG N/A  
 

 
 
CAZ034-035-036-111500-  
CENTRAL COAST AND SANTA YNEZ VALLEY  
 
 
CITY SKY/WX TMP DP RH WIND PRES REMARKS
 
SAN LUIS OBISP CLOUDY 53 32 44 CALM 30.04R FOG  
SANTA MARIA CLOUDY 56 55 97 SW5 30.05R FOG  
 
CITY SKY/WX TMP DP RH WIND PRES REMARKS
 
*CAL POLY SLO N/A 57 57 100 CALM N/A  
*LOMPOC CLOUDY 57 56 96 NW8 30.05S FOG  
*PISMO BEACH N/A 57 44 60 CALM 30.03R  
*SANTA YNEZ FOG 55 55 100 CALM 30.05R VSB<1/4  
 

 
 
CAZ037-038-051-111500-  
SAN LUIS OBISPO COUNTY INTERIOR AND CUYAMA VALLEY  
 
 
CITY SKY/WX TMP DP RH WIND PRES REMARKS
 
*CUYAMA N/A 63 47 55 CALM 29.92R  
PASO ROBLES CLEAR 56 49 77 CALM 30.06R  
 

 
 
CAZ032-033-061-111500-  
SOUTHERN DESERTS  
 
 
CITY SKY/WX TMP DP RH WIND PRES REMARKS
 
BLYTHE PTSUNNY 87 71 58 CALM 29.94R HX 93  
IMPERIAL SUNNY 86 70 58 E5 29.89R HX 90  
PALM SPRINGS SUNNY 87 51 28 CALM 29.95R  
THERMAL MOSUNNY 78 58 49 CALM 29.90R  
 

 
 
ELSEWHERE ACROSS THE WESTERN UNITED STATES AND MEXICO  
 
 
CITY SKY/WX TMP DP RH WIND PRES REMARKS
 
DEATH VALLEY, N/A 98 51 20 SE2 N/A HX 94  
DENVER, CO MOSUNNY 74 53 48 SW13 30.26S  
GRAND CANYON, MOSUNNY 62 58 86 E3 30.39R  
HONOLULU, HI PTCLDY 79 70 73 E17 30.08S  
KAHULUI, MAUI CLOUDY 79 65 62 NE12G23 30.08S  
LAKE TAHOE, CA CLEAR 45 39 79 S5 30.30R  
LAS VEGAS, NV PTSUNNY 83 62 49 CALM 30.06S  
MAMMOTH LAKES, N/A 50 45 81 N3 30.38R  
MEXICO CITY, M CLOUDY 61 52 72 NE9 30.40R  
PHOENIX, AZ PTSUNNY 86 66 51 E8 30.00R  
PORTLAND, OR PTCLDY 62 57 83 CALM 30.11S  
RENO, NV CLEAR 66 47 50 W3 30.19R  
SALT LAKE CITY PTSUNNY 77 60 55 SW6 30.21F  
SAN DIEGO, CA PTCLDY 69 67 93 N6 30.00R FOG  
SAN FRANCISCO, MOCLDY 62 57 83 W10 30.06R  
SAN JOSE, CA MOCLDY 62 56 80 W6 30.07R  
SEATTLE, WA PTCLDY 61 55 81 NE3 30.14R  
TIJUANA, MEX PTCLDY 70 63 78 CALM 30.02R  
 

 
 
STATION/POSITION TIME TEMP WIND PRES VSBY WAVE
 
AIR SEA DIR/SP/G HT/PER  
(UTC) (F) (DEG/KT/KT) (MB) (MI) (FT/S)  
WEST SANTA BARBA 1300 57 320/ 21/ 27 1015.4  
EAST SANTA BARBA 1300 63 260/ 8/ 10 1014.9  
SANTA MONICA BAY 1300 66 350/ 4/ 6 1015.7  
SAN CLEMENTE BAS 1300 70 300/ 10/ 14 1014.5  
 
CLICK HERE TO GO TO PREVIOUS BULLETINS.

The Nexlab CA Page Main Text Page